| time (UTC) | temp C | wind direction | speed KPH | gust KPH | rain 1hr cm | rain 24hr cm | rain mn cm | humidity % | barometer mb |
| 20260504200510 | 26 | 214 | 6.4 | 11.3 | 0.00 | 0.00 | 0.00 | 37 | 1012.1 |
| 20260504200010 | 25 | 221 | 3.2 | 11.3 | 0.00 | 0.00 | 0.00 | 37 | 1012.1 |
| 20260504195510 | 26 | 224 | 4.8 | 11.3 | 0.00 | 0.00 | 0.00 | 35 | 1012.1 |
| 20260504195009 | 26 | 215 | 3.2 | 14.5 | 0.00 | 0.00 | 0.00 | 38 | 1012.1 |
| 20260504194510 | 25 | 195 | 4.8 | 14.5 | 0.00 | 0.00 | 0.00 | 37 | 1012.2 |
| 20260504194010 | 26 | 226 | 4.8 | 14.5 | 0.00 | 0.00 | 0.00 | 37 | 1012.3 |
| 20260504193509 | 25 | 223 | 1.6 | 16.1 | 0.00 | 0.00 | 0.00 | 37 | 1012.4 |
| 20260504193010 | 25 | 289 | 4.8 | 16.1 | 0.00 | 0.00 | 0.00 | 38 | 1012.5 |
| 20260504192510 | 25 | 215 | 4.8 | 16.1 | 0.00 | 0.00 | 0.00 | 36 | 1012.5 |
| 20260504192009 | 25 | 231 | 3.2 | 9.7 | 0.00 | 0.00 | 0.00 | 37 | 1012.7 |
| 20260504191509 | 25 | 229 | 3.2 | 11.3 | 0.00 | 0.00 | 0.00 | 37 | 1012.8 |
| 20260504191010 | 25 | 229 | 4.8 | 11.3 | 0.00 | 0.00 | 0.00 | 38 | 1012.9 |
| 20260504190509 | 25 | 217 | 3.2 | 9.7 | 0.00 | 0.00 | 0.00 | 38 | 1012.9 |
| 20260504190010 | 24 | 226 | 3.2 | 12.9 | 0.00 | 0.00 | 0.00 | 38 | 1013.1 |
| 20260504185510 | 23 | 233 | 8.0 | 12.9 | 0.00 | 0.00 | 0.00 | 38 | 1013.2 |
| 20260504185009 | 23 | 228 | 4.8 | 11.3 | 0.00 | 0.00 | 0.00 | 39 | 1013.3 |
| 20260504184511 | 23 | 233 | 8.0 | 11.3 | 0.00 | 0.00 | 0.00 | 39 | 1013.4 |
| 20260504184010 | 24 | 229 | 4.8 | 14.5 | 0.00 | 0.00 | 0.00 | 38 | 1013.3 |
| 20260504183509 | 23 | 209 | 4.8 | 14.5 | 0.00 | 0.00 | 0.00 | 39 | 1013.3 |
| 20260504183010 | 23 | 219 | 6.4 | 11.3 | 0.00 | 0.00 | 0.00 | 38 | 1013.3 |
| 20260504182510 | 23 | 222 | 4.8 | 14.5 | 0.00 | 0.00 | 0.00 | 39 | 1013.4 |
| 20260504182010 | 23 | 211 | 6.4 | 14.5 | 0.00 | 0.00 | 0.00 | 37 | 1013.5 |
| 20260504181509 | 23 | 225 | 9.7 | 12.9 | 0.00 | 0.00 | 0.00 | 37 | 1013.5 |
| 20260504181010 | 23 | 224 | 3.2 | 11.3 | 0.00 | 0.00 | 0.00 | 39 | 1013.6 |
| 20260504180509 | 23 | 224 | 6.4 | 11.3 | 0.00 | 0.00 | 0.00 | 39 | 1013.7 |
| 20260504180009 | 22 | 220 | 3.2 | 14.5 | 0.00 | 0.00 | 0.00 | 38 | 1013.7 |
| 20260504175509 | 22 | 225 | 4.8 | 14.5 | 0.00 | 0.00 | 0.00 | 37 | 1013.8 |
| 20260504175009 | 22 | 207 | 6.4 | 14.5 | 0.00 | 0.00 | 0.00 | 38 | 1013.7 |
| 20260504174509 | 23 | 247 | 8.0 | 14.5 | 0.00 | 0.00 | 0.00 | 38 | 1013.8 |
| 20260504174010 | 23 | 236 | 6.4 | 11.3 | 0.00 | 0.00 | 0.00 | 39 | 1013.8 |
| 20260504173509 | 22 | 216 | 4.8 | 8.0 | 0.00 | 0.00 | 0.00 | 39 | 1013.8 |
| 20260504173009 | 22 | 235 | 4.8 | 11.3 | 0.00 | 0.00 | 0.00 | 39 | 1013.9 |
| 20260504172509 | 22 | 217 | 3.2 | 11.3 | 0.00 | 0.00 | 0.00 | 40 | 1014.0 |
| 20260504172010 | 22 | 223 | 4.8 | 12.9 | 0.00 | 0.00 | 0.00 | 39 | 1014.1 |
| 20260504171510 | 22 | 229 | 6.4 | 16.1 | 0.00 | 0.00 | 0.00 | 38 | 1014.2 |
| 20260504171009 | 22 | 316 | 3.2 | 16.1 | 0.00 | 0.00 | 0.00 | 38 | 1014.2 |
| 20260504170509 | 23 | 209 | 1.6 | 16.1 | 0.00 | 0.00 | 0.00 | 39 | 1014.3 |
| 20260504151009 | 19 | 223 | 3.2 | 11.3 | 0.00 | 0.00 | 0.00 | 45 | 1015.4 |
| 20260504150509 | 18 | 229 | 4.8 | 11.3 | 0.00 | 0.00 | 0.00 | 46 | 1015.4 |
| 20260504141010 | 16 | 220 | 3.2 | 8.0 | 0.00 | 0.00 | 0.00 | 54 | 1015.8 |
| 20260504140509 | 16 | 318 | 3.2 | 8.0 | 0.00 | 0.00 | 0.00 | 54 | 1015.8 |
| 20260504130509 | 14 | 210 | 4.8 | 9.7 | 0.00 | 0.00 | 0.00 | 58 | 1016.2 |
| 20260504110509 | 11 | 213 | 0.0 | 3.2 | 0.00 | 0.00 | 0.00 | 63 | 1016.6 |
| 20260504100509 | 12 | 205 | 1.6 | 4.8 | 0.00 | 0.00 | 0.00 | 59 | 1016.3 |
| 20260504081508 | 12 | 223 | 3.2 | 4.8 | 0.00 | 0.00 | 0.00 | 53 | 1016.6 |
| 20260504081009 | 12 | 224 | 3.2 | 8.0 | 0.00 | 0.00 | 0.00 | 53 | 1016.6 |
| 20260504080508 | 12 | 219 | 3.2 | 8.0 | 0.00 | 0.00 | 0.00 | 53 | 1016.5 |
| 20260504050508 | 11 | 205 | 1.6 | 4.8 | 0.00 | 0.00 | 0.00 | 58 | 1016.5 |
| 20260504050008 | 11 | 205 | 0.0 | 0.0 | 0.00 | 0.00 | 0.00 | 58 | 1016.6 |
| 20260504045508 | 11 | 205 | 0.0 | 3.2 | 0.00 | 0.00 | 0.00 | 58 | 1016.6 |
| 20260504045009 | 11 | 205 | 0.0 | 4.8 | 0.00 | 0.00 | 0.00 | 58 | 1016.5 |
| 20260504044508 | 10 | 205 | 0.0 | 4.8 | 0.00 | 0.00 | 0.00 | 59 | 1016.5 |
| 20260504044009 | 10 | 205 | 1.6 | 4.8 | 0.00 | 0.00 | 0.00 | 59 | 1016.5 |
| 20260504043508 | 10 | 205 | 0.0 | 3.2 | 0.00 | 0.00 | 0.00 | 60 | 1016.5 |
| 20260504043009 | 10 | 205 | 0.0 | 3.2 | 0.00 | 0.00 | 0.00 | 60 | 1016.5 |
| 20260504042508 | 10 | 205 | 0.0 | 0.0 | 0.00 | 0.00 | 0.00 | 61 | 1016.4 |
| 20260504042008 | 10 | 205 | 0.0 | 0.0 | 0.00 | 0.00 | 0.00 | 61 | 1016.5 |
| 20260504041508 | 10 | 205 | 0.0 | 0.0 | 0.00 | 0.00 | 0.00 | 61 | 1016.5 |
| 20260504041008 | 10 | 205 | 0.0 | 3.2 | 0.00 | 0.00 | 0.00 | 61 | 1016.5 |
| 20260504040508 | 10 | 205 | 0.0 | 3.2 | 0.00 | 0.00 | 0.00 | 61 | 1016.4 |
| 20260504040009 | 10 | 205 | 0.0 | 3.2 | 0.00 | 0.00 | 0.00 | 62 | 1016.4 |
| 20260504035508 | 10 | 205 | 0.0 | 4.8 | 0.00 | 0.00 | 0.00 | 62 | 1016.4 |
| 20260504035009 | 10 | 205 | 1.6 | 4.8 | 0.00 | 0.00 | 0.00 | 62 | 1016.4 |
| 20260504034508 | 10 | 205 | 0.0 | 0.0 | 0.00 | 0.00 | 0.00 | 63 | 1016.4 |
| 20260504034008 | 10 | 205 | 0.0 | 0.0 | 0.00 | 0.00 | 0.00 | 63 | 1016.5 |
| 20260504033508 | 10 | 205 | 0.0 | 0.0 | 0.00 | 0.00 | 0.00 | 63 | 1016.5 |
| 20260504033008 | 10 | 205 | 0.0 | 0.0 | 0.00 | 0.00 | 0.00 | 62 | 1016.5 |
| 20260504032508 | 10 | 205 | 0.0 | 0.0 | 0.00 | 0.00 | 0.00 | 62 | 1016.5 |
| 20260504032008 | 10 | 205 | 0.0 | 0.0 | 0.00 | 0.00 | 0.00 | 62 | 1016.5 |
| 20260504031509 | 10 | 205 | 0.0 | 0.0 | 0.00 | 0.00 | 0.00 | 62 | 1016.5 |
| 20260504031008 | 10 | 205 | 0.0 | 0.0 | 0.00 | 0.00 | 0.00 | 62 | 1016.5 |
| 20260504030508 | 10 | 205 | 0.0 | 0.0 | 0.00 | 0.00 | 0.00 | 62 | 1016.3 |
| 20260504030008 | 10 | 205 | 0.0 | 0.0 | 0.00 | 0.00 | 0.00 | 62 | 1016.3 |
| 20260504025508 | 10 | 205 | 0.0 | 0.0 | 0.00 | 0.00 | 0.00 | 62 | 1016.4 |
| 20260504025008 | 10 | 205 | 0.0 | 0.0 | 0.00 | 0.00 | 0.00 | 62 | 1016.4 |
| 20260504024509 | 10 | 205 | 0.0 | 0.0 | 0.00 | 0.00 | 0.00 | 62 | 1016.4 |
| 20260504024008 | 10 | 205 | 0.0 | 0.0 | 0.00 | 0.00 | 0.00 | 61 | 1016.4 |
| 20260504023508 | 10 | 205 | 0.0 | 0.0 | 0.00 | 0.00 | 0.00 | 62 | 1016.4 |
| 20260504023008 | 10 | 205 | 0.0 | 0.0 | 0.00 | 0.00 | 0.00 | 62 | 1016.4 |
| 20260504022508 | 10 | 205 | 0.0 | 0.0 | 0.00 | 0.00 | 0.00 | 61 | 1016.4 |
| 20260504022009 | 11 | 205 | 0.0 | 0.0 | 0.00 | 0.00 | 0.00 | 61 | 1016.3 |
| 20260504021508 | 11 | 205 | 0.0 | 0.0 | 0.00 | 0.00 | 0.00 | 61 | 1016.4 |
| 20260504021009 | 11 | 205 | 0.0 | 0.0 | 0.00 | 0.00 | 0.00 | 61 | 1016.3 |
| 20260504020508 | 11 | 205 | 0.0 | 0.0 | 0.00 | 0.00 | 0.00 | 61 | 1016.2 |
| 20260504020008 | 11 | 205 | 0.0 | 0.0 | 0.00 | 0.00 | 0.00 | 60 | 1016.3 |
| 20260504015508 | 11 | 205 | 0.0 | 0.0 | 0.00 | 0.00 | 0.00 | 60 | 1016.2 |
| 20260504015008 | 11 | 205 | 0.0 | 0.0 | 0.00 | 0.00 | 0.00 | 60 | 1016.2 |
| 20260504014508 | 11 | 205 | 0.0 | 0.0 | 0.00 | 0.00 | 0.00 | 60 | 1016.1 |
| 20260504014009 | 11 | 205 | 0.0 | 0.0 | 0.00 | 0.00 | 0.00 | 60 | 1016.2 |
| 20260504013508 | 11 | 205 | 0.0 | 0.0 | 0.00 | 0.00 | 0.00 | 59 | 1016.2 |
| 20260504013008 | 11 | 205 | 0.0 | 0.0 | 0.00 | 0.00 | 0.00 | 58 | 1016.2 |
| 20260504012508 | 11 | 205 | 0.0 | 0.0 | 0.00 | 0.00 | 0.00 | 58 | 1016.1 |
| 20260504012009 | 12 | 205 | 0.0 | 0.0 | 0.00 | 0.00 | 0.00 | 57 | 1016.1 |
| 20260504011508 | 12 | 205 | 0.0 | 0.0 | 0.00 | 0.00 | 0.00 | 57 | 1016.0 |
| 20260504011008 | 12 | 205 | 0.0 | 0.0 | 0.00 | 0.00 | 0.00 | 56 | 1016.0 |
| 20260504010509 | 12 | 205 | 0.0 | 0.0 | 0.00 | 0.00 | 0.00 | 56 | 1016.0 |
| 20260504010008 | 12 | 205 | 0.0 | 0.0 | 0.00 | 0.00 | 0.00 | 55 | 1016.0 |
| 20260504005508 | 12 | 205 | 0.0 | 0.0 | 0.00 | 0.00 | 0.00 | 55 | 1016.1 |
| 20260504005008 | 12 | 205 | 0.0 | 0.0 | 0.00 | 0.00 | 0.00 | 54 | 1016.1 |
| 20260504004508 | 13 | 205 | 0.0 | 0.0 | 0.00 | 0.00 | 0.00 | 53 | 1016.1 |
| 20260504004007 | 13 | 205 | 0.0 | 0.0 | 0.00 | 0.00 | 0.00 | 52 | 1016.0 |
| 20260504003508 | 13 | 205 | 0.0 | 0.0 | 0.00 | 0.00 | 0.00 | 52 | 1015.9 |
| 20260504003008 | 13 | 205 | 0.0 | 0.0 | 0.00 | 0.00 | 0.00 | 51 | 1015.9 |
| 20260504002508 | 14 | 205 | 0.0 | 0.0 | 0.00 | 0.00 | 0.00 | 50 | 1015.9 |
| 20260504002008 | 14 | 205 | 0.0 | 0.0 | 0.00 | 0.00 | 0.00 | 48 | 1015.9 |
| 20260504001507 | 14 | 205 | 0.0 | 0.0 | 0.00 | 0.00 | 0.00 | 47 | 1015.8 |
| 20260504001008 | 15 | 205 | 0.0 | 0.0 | 0.00 | 0.00 | 0.00 | 47 | 1015.8 |
| 20260504000508 | 15 | 205 | 0.0 | 0.0 | 0.00 | 0.00 | 0.00 | 45 | 1015.8 |
| 20260504000008 | 15 | 205 | 0.0 | 0.0 | 0.00 | 0.00 | 0.00 | 45 | 1015.7 |
| 20260503235508 | 16 | 205 | 0.0 | 0.0 | 0.00 | 0.00 | 0.00 | 43 | 1015.6 |
| 20260503235008 | 16 | 205 | 0.0 | 0.0 | 0.00 | 0.00 | 0.00 | 43 | 1015.5 |
| 20260503234507 | 16 | 205 | 0.0 | 0.0 | 0.00 | 0.00 | 0.00 | 42 | 1015.5 |
| 20260503234008 | 16 | 205 | 0.0 | 0.0 | 0.00 | 0.00 | 0.00 | 40 | 1015.4 |
| 20260503233509 | 16 | 205 | 0.0 | 0.0 | 0.00 | 0.00 | 0.00 | 40 | 1015.4 |
| 20260503233008 | 16 | 205 | 0.0 | 0.0 | 0.00 | 0.00 | 0.00 | 39 | 1015.4 |
| 20260503232508 | 16 | 205 | 0.0 | 3.2 | 0.00 | 0.00 | 0.00 | 40 | 1015.4 |
| 20260503232009 | 16 | 205 | 0.0 | 3.2 | 0.00 | 0.00 | 0.00 | 39 | 1015.4 |
| 20260503231508 | 16 | 205 | 1.6 | 4.8 | 0.00 | 0.00 | 0.00 | 38 | 1015.4 |
| 20260503231008 | 16 | 205 | 1.6 | 4.8 | 0.00 | 0.00 | 0.00 | 38 | 1015.3 |
| 20260503230508 | 16 | 205 | 3.2 | 9.7 | 0.00 | 0.00 | 0.00 | 38 | 1015.3 |
| 20260503230008 | 16 | 221 | 3.2 | 9.7 | 0.00 | 0.00 | 0.00 | 38 | 1015.4 |
| 20260503225509 | 17 | 217 | 1.6 | 9.7 | 0.00 | 0.00 | 0.00 | 38 | 1015.4 |
| 20260503225008 | 17 | 211 | 3.2 | 9.7 | 0.00 | 0.00 | 0.00 | 37 | 1015.4 |
| 20260503224507 | 17 | 225 | 4.8 | 9.7 | 0.00 | 0.00 | 0.00 | 36 | 1015.4 |
| 20260503224007 | 17 | 215 | 3.2 | 4.8 | 0.00 | 0.00 | 0.00 | 36 | 1015.4 |
| 20260503223507 | 17 | 323 | 1.6 | 11.3 | 0.00 | 0.00 | 0.00 | 36 | 1015.5 |
| 20260503223007 | 17 | 229 | 3.2 | 11.3 | 0.00 | 0.00 | 0.00 | 34 | 1015.5 |
| 20260503222507 | 18 | 225 | 4.8 | 9.7 | 0.00 | 0.00 | 0.00 | 34 | 1015.5 |
| 20260503222008 | 18 | 319 | 3.2 | 4.8 | 0.00 | 0.00 | 0.00 | 34 | 1015.5 |
| 20260503221508 | 18 | 5 | 1.6 | 4.8 | 0.00 | 0.00 | 0.00 | 34 | 1015.6 |
| 20260503221007 | 18 | 293 | 1.6 | 4.8 | 0.00 | 0.00 | 0.00 | 34 | 1015.7 |
| 20260503220507 | 18 | 294 | 3.2 | 8.0 | 0.00 | 0.00 | 0.00 | 34 | 1015.7 |
| 20260503220008 | 18 | 282 | 3.2 | 9.7 | 0.00 | 0.00 | 0.00 | 34 | 1015.8 |
| 20260503215507 | 18 | 271 | 1.6 | 9.7 | 0.00 | 0.00 | 0.00 | 34 | 1015.8 |
| 20260503215008 | 18 | 286 | 3.2 | 14.5 | 0.00 | 0.00 | 0.00 | 34 | 1015.8 |
| 20260503214507 | 18 | 229 | 4.8 | 14.5 | 0.00 | 0.00 | 0.00 | 33 | 1015.7 |
| 20260503214007 | 18 | 241 | 8.0 | 12.9 | 0.00 | 0.00 | 0.00 | 32 | 1015.8 |
| 20260503213508 | 18 | 296 | 3.2 | 9.7 | 0.00 | 0.00 | 0.00 | 34 | 1015.8 |
| 20260503213008 | 18 | 12 | 4.8 | 9.7 | 0.00 | 0.00 | 0.00 | 33 | 1015.7 |
| 20260503212507 | 18 | 327 | 3.2 | 14.5 | 0.00 | 0.00 | 0.00 | 32 | 1015.7 |
| 20260503212009 | 18 | 320 | 4.8 | 14.5 | 0.00 | 0.00 | 0.00 | 32 | 1015.8 |
| 20260503211508 | 19 | 242 | 4.8 | 11.3 | 0.00 | 0.00 | 0.00 | 32 | 1015.8 |
| 20260503211008 | 18 | 348 | 4.8 | 11.3 | 0.00 | 0.00 | 0.00 | 34 | 1015.7 |
| 20260503210509 | 19 | 157 | 3.2 | 8.0 | 0.00 | 0.00 | 0.00 | 33 | 1015.8 |
| 20260503210007 | 19 | 318 | 3.2 | 9.7 | 0.00 | 0.00 | 0.00 | 33 | 1015.8 |
| 20260503205508 | 18 | 295 | 3.2 | 9.7 | 0.00 | 0.00 | 0.00 | 34 | 1015.8 |
| 20260503205008 | 19 | 7 | 4.8 | 11.3 | 0.00 | 0.00 | 0.00 | 35 | 1015.8 |
| 20260503204507 | 18 | 332 | 6.4 | 12.9 | 0.00 | 0.00 | 0.00 | 34 | 1015.7 |
| 20260503204009 | 18 | 246 | 4.8 | 25.7 | 0.00 | 0.00 | 0.00 | 33 | 1015.8 |
| 20260503203508 | 18 | 0 | 9.7 | 25.7 | 0.00 | 0.00 | 0.00 | 35 | 1015.7 |
| 20260503203008 | 18 | 242 | 3.2 | 14.5 | 0.00 | 0.00 | 0.00 | 34 | 1015.7 |
| 20260503202507 | 18 | 226 | 6.4 | 14.5 | 0.00 | 0.00 | 0.00 | 34 | 1015.8 |
| 20260503202007 | 18 | 224 | 8.0 | 14.5 | 0.00 | 0.00 | 0.00 | 33 | 1015.9 |
| 20260503201507 | 19 | 244 | 3.2 | 9.7 | 0.00 | 0.00 | 0.00 | 34 | 1016.0 |
| 20260503201008 | 18 | 208 | 3.2 | 14.5 | 0.00 | 0.00 | 0.00 | 34 | 1015.9 |